Regional Weather Roundup
Issued by NWS

Home | Current Version | Previous Version | Text Only | Print | Product List | Glossary On
Versions: 1 2 3 4 5 6 7 8 9 10 11 12 13 14 15 16 17 18 19 20 21 22 23 24 25 26 27 28 29 30 31 32 33 34 35 36 37 38 39 40 41 42 43 44 45 46 47 48 49 50
000
ASUS44 KFWD 260003
RWRTX
NORTH TEXAS HOURLY WEATHER ROUNDUP
NATIONAL WEATHER SERVICE FORT WORTH TX
700 PM CDT SAT APR 25 2015

NOTE: "FAIR" INDICATES FEW OR NO CLOUDS BELOW 12,000 FEET WITH NO
SIGNIFICANT WEATHER AND/OR OBSTRUCTIONS TO VISIBILITY.

TXZ118-119-260100-
DALLAS/FORT WORTH METROPLEX

CITY           SKY/WX    TMP DP  RH WIND       PRES   REMARKS
DFW AIRPORT    SUNNY     83  49  30 SW10      29.63F
6HR MIN TEMP:  83; 6HR MAX TEMP:  87;

DALLAS LOVE    SUNNY     86  46  24 W8        29.63F
6HR MIN TEMP:  83; 6HR MAX TEMP:  88;

FTW MEACHAM    SUNNY     83  51  33 SW8       29.64S
6HR MIN TEMP:  83; 6HR MAX TEMP:  86;

DAL-EXECUTIVE  SUNNY     83  49  30 SW7       29.64F
6HR MIN TEMP:  82; 6HR MAX TEMP:  86;

FTW-ALLIANCE   SUNNY     82  51  34 W5        29.64S
6HR MIN TEMP:  81; 6HR MAX TEMP:  86;

FTW-NAS-JRB      N/A    N/A N/A N/A MISG        N/A
FTW-SPINKS     SUNNY     82  50  32 SW12      29.67S
ARLINGTON      SUNNY     86  46  24 SW7       29.65S
6HR MIN TEMP:  83; 6HR MAX TEMP:  87;

ADDISON        SUNNY     86  39  19 W6G15     29.63S
MESQUITE       SUNNY     84  46  26 SW8       29.65S
LANCASTER      SUNNY     83  51  32 SW7       29.66S
6HR MIN TEMP:  81; 6HR MAX TEMP:  86;

$$

TXZ091>094-102>105-117-120-121-131>134-260100-
NORTH CENTRAL TEXAS

CITY           SKY/WX    TMP DP  RH WIND       PRES   REMARKS
SHRMAN/DENISON SUNNY     81  61  49 W5        29.65S
6HR MIN TEMP:  78; 6HR MAX TEMP:  84;

BRIDGEPORT     SUNNY     82  48  30 W9G18     29.67S
6HR MIN TEMP:  80; 6HR MAX TEMP:  85;

DECATUR        SUNNY     82  45  27 W7        29.65F
6HR MIN TEMP:  78; 6HR MAX TEMP:  85;

DENTON         SUNNY     80  54  40 W6        29.63F
6HR MIN TEMP:  79; 6HR MAX TEMP:  85;

MCKINNEY       SUNNY     84  45  25 W9        29.64S
6HR MIN TEMP:  81; 6HR MAX TEMP:  86;

GREENVILLE     SUNNY     84  50  30 CALM      29.64S
ROCKWALL       SUNNY     84  49  29 W8        29.63S
6HR MIN TEMP:  81; 6HR MAX TEMP:  88;

TERRELL        SUNNY     85  58  39 SW7       29.65S
6HR MIN TEMP:  85; 6HR MAX TEMP:  91; 6HR PCP: TRACE;

WAXAHACHIE     SUNNY     83  55  37 CALM      29.67S
6HR MIN TEMP:  81; 6HR MAX TEMP:  86;

CLEBURNE       SUNNY     81  52  36 SW8       29.68S
GRANBURY         N/A     83  49  31 SW10      29.67S
6HR MIN TEMP:  83; 6HR MAX TEMP:  87;

$$

TXZ083>090-098>101-113>116-127>130-139>142-154-155-260100-
WESTERN NORTH TEXAS

CITY           SKY/WX    TMP DP  RH WIND       PRES   REMARKS
WICHITA FALLS  SUNNY     82  46  28 SW15      29.60F
6HR MIN TEMP:  77; 6HR MAX TEMP:  84;

WF-KICKAPOO    SUNNY     84  45  25 S10G16    29.62F
6HR MIN TEMP:  80; 6HR MAX TEMP:  87;

VERNON         SUNNY     87  29  12 W5        29.61S
6HR MIN TEMP:  53; 6HR MAX TEMP:  88;

ABILENE        SUNNY     83  37  19 W9        29.69F
6HR MIN TEMP:  81; 6HR MAX TEMP:  86;

BRECKENRIDGE   SUNNY     85  37  17 W10G18    29.66F HAZE
6HR MIN TEMP:  85; 6HR MAX TEMP:  87;

MINERAL WELLS  SUNNY     82  49  31 W7        29.64F
6HR MIN TEMP:  81; 6HR MAX TEMP:  86; 6HR PCP: TRACE;

STEPHENVILLE   SUNNY     82  44  26 SW7G16    29.72S
6HR MIN TEMP:  79; 6HR MAX TEMP:  84;

COMANCHE       SUNNY     82  50  33 CALM      29.70F
6HR MIN TEMP:  79; 6HR MAX TEMP:  83;

COLEMAN        SUNNY     84  42  22 W10G20    29.70F
6HR MIN TEMP:  79; 6HR MAX TEMP:  86;

BRADY          SUNNY     88  34  14 W9        29.71F
$$

TXZ143>147-156>162-174-175-260100-
CENTRAL TEXAS

CITY           SKY/WX    TMP DP  RH WIND       PRES   REMARKS
WACO           SUNNY     83  54  36 SW5       29.67F
6HR MIN TEMP:  83; 6HR MAX TEMP:  88;

WACO-TSTC      SUNNY     84  54  34 W5        29.67S
WACO-MCGREGOR  SUNNY     84  52  32 W7        29.69S
6HR MIN TEMP:  84; 6HR MAX TEMP:  88;

HILLSBORO      SUNNY     81  53  38 SW7       29.68S
6HR MIN TEMP:  81; 6HR MAX TEMP:  86;

CORSICANA      SUNNY     83  59  44 SW7       29.68R
6HR MIN TEMP:  83; 6HR MAX TEMP:  87;

MEXIA          SUNNY     83  58  42 SW8       29.67S
6HR MIN TEMP:  82; 6HR MAX TEMP:  86;

HEARNE         SUNNY     84  66  54 CALM      29.68S
6HR MIN TEMP:  84; 6HR MAX TEMP:  89;

TEMPLE         SUNNY     84  48  28 W5        29.68S
6HR MIN TEMP:  84; 6HR MAX TEMP:  90;

KILLEEN        NOT AVBL
KILLEEN-SKYLRK SUNNY     88  46  23 NW3       29.69S
6HR MIN TEMP:  86; 6HR MAX TEMP:  90;

GATESVILLE     SUNNY     84  50  30 CALM      29.71S
HAMILTON       SUNNY     82  54  37 NW3       29.71F
6HR MIN TEMP:  80; 6HR MAX TEMP:  85;

LAMPASAS       SUNNY     83  47  27 N3        29.70S
6HR MIN TEMP:  82; 6HR MAX TEMP:  87;

$$

TXZ095>097-106>112-122>126-135>138-148>153-164>167-260100-
EAST TEXAS

CITY           SKY/WX    TMP DP  RH WIND       PRES   REMARKS
PARIS          SUNNY     79  55  44 MISG      29.65R
6HR MIN TEMP:  79; 6HR MAX TEMP:  82;

SULPHUR SPRNGS SUNNY     82  53  36 SW6       29.66S
6HR MIN TEMP:  81; 6HR MAX TEMP:  86; 6HR PCP:  0.02;

MOUNT PLEASANT SUNNY    N/A N/A N/A SW6       29.65S
GILMER         SUNNY     84  50  30 CALM      29.65S
6HR MIN TEMP:  83; 6HR MAX TEMP:  87; 6HR PCP:  0.02;

TYLER          SUNNY     83  52  34 SW8       29.67R
6HR MIN TEMP:  83; 6HR MAX TEMP:  87;

LONGVIEW       SUNNY     83  53  35 SW6       29.65S
6HR MIN TEMP:  83; 6HR MAX TEMP:  87;

MARSHALL       SUNNY     86  54  33 SW6       29.67R
6HR MIN TEMP:  85; 6HR MAX TEMP:  89;

ATHENS         SUNNY     81  55  41 CALM      29.66S
PALESTINE      SUNNY     87  58  36 SW3       29.68S
JACKSONVILLE   SUNNY     84  52  32 CALM      29.70S
HENDERSON      SUNNY     83  51  33 W5        29.68S
6HR MIN TEMP:  83; 6HR MAX TEMP:  87;

NACOGDOCHES    SUNNY     84  64  51 SW5       29.67R
6HR MIN TEMP:  82; 6HR MAX TEMP:  88;

LUFKIN         SUNNY     87  65  47 S7        29.67S
6HR MIN TEMP:  85; 6HR MAX TEMP:  91;

$$

SUPPLEMENTAL OBSERVATIONS (CENTRAL)

CITY           SKY/WX    TMP DP  RH WIND       PRES   REMARKS
$$

SUPPLEMENTAL OBSERVATIONS (WEST)

CITY           SKY/WX    TMP DP  RH WIND       PRES   REMARKS
$$

SUPPLEMENTAL OBSERVATIONS (EAST)

CITY           SKY/WX    TMP DP  RH WIND       PRES   REMARKS
$$

SUPPLEMENTAL OBSERVATIONS ARE A COLLECTION OF AUTOMATED INSTRUMENTS
THAT ARE MAINTAINED BY A VARIETY OF FEDERAL AND STATE AGENCIES.
CERTAIN ELEMENTS...SUCH AS HUMIDITY VALUES AND SUSTAINED WIND
SPEEDS...MAY BE APPROXIMATED.




USA.gov is the U.S. government's official web portal to all federal, state and local government web resources and services.